Location: Muenchen
(48.1800°N, 11.5800°E)
Time: 17:09:09
(UTC+01:00)

Vanguard 2 Rocket - Visible Passes

Search period start: 31 January 2015 00:00
Search period end: 10 February 2015 00:00
Orbit: 553 x 3334 km, 32.9° (Epoch: 29 January)

Date Brightness Start Highest point End Pass type
(mag) Time Alt. Az. Time Alt. Az. Time Alt. Az.
31 Jan 10.0 18:34:29 10° SSW 18:48:46 26° SSE 18:58:21 16° ESE visible
31 Jan 9.5 20:48:04 10° SW 21:04:14 39° S 21:04:14 39° S visible
31 Jan 10.3 23:05:14 10° WSW 23:10:09 20° WSW 23:10:09 20° WSW visible
01 Feb 10.3 17:36:14 10° S 17:48:45 22° SSE 18:00:37 10° ESE visible
01 Feb 9.5 19:47:45 10° SW 20:04:26 37° SSE 20:09:05 32° SE visible
01 Feb 9.8 22:04:03 10° WSW 22:14:59 34° SW 22:14:59 34° SW visible
02 Feb 9.9 18:48:00 10° SSW 19:04:22 34° SSE 19:13:53 20° ESE visible
02 Feb 9.4 21:03:04 10° WSW 21:19:47 43° S 21:19:47 43° S visible
02 Feb 10.3 23:20:57 10° WSW 23:25:41 20° WSW 23:25:41 20° WSW visible
03 Feb 10.3 17:48:58 10° SSW 18:04:12 29° SSE 18:17:58 10° E visible
03 Feb 9.5 20:02:26 10° SW 20:20:08 43° S 20:24:35 37° SE visible
03 Feb 9.8 22:19:35 10° WSW 22:30:28 34° SW 22:30:28 34° SW visible
04 Feb 9.8 19:02:18 10° SW 19:19:56 40° SSE 19:29:20 24° ESE visible
04 Feb 9.4 21:18:24 10° WSW 21:35:14 44° S 21:35:14 44° S visible
04 Feb 10.4 23:36:54 10° W 23:41:07 18° WSW 23:41:07 18° WSW visible
05 Feb 10.2 18:02:47 10° SSW 18:19:39 36° SSE 18:34:05 11° E visible
05 Feb 9.4 20:17:32 10° WSW 20:35:48 46° S 20:39:59 40° SSE visible
05 Feb 9.9 22:35:19 10° W 22:45:52 32° SW 22:45:52 32° SW visible
06 Feb 9.7 19:17:08 10° SW 19:35:32 45° S 19:44:43 27° ESE visible
06 Feb 9.5 21:33:58 10° WSW 21:50:35 43° SSW 21:50:35 43° SSW visible
06 Feb 10.6 23:53:12 10° W 23:56:29 15° WSW 23:56:29 15° WSW visible
07 Feb 10.1 18:17:17 10° SW 18:35:07 42° SSE 18:49:26 14° ESE visible
07 Feb 9.4 20:32:57 10° WSW 20:51:25 47° S 20:55:19 42° SSE visible
07 Feb 10.1 22:51:16 10° W 23:01:12 28° WSW 23:01:12 28° WSW visible
08 Feb 9.7 19:32:21 10° WSW 19:51:08 48° S 20:00:02 29° SE visible
08 Feb 9.7 21:49:44 10° W 22:05:55 40° SSW 22:05:55 40° SSW visible
09 Feb 10.7 00:10:06 10° W 00:11:48 12° WSW 00:11:48 12° WSW visible
09 Feb 10.0 18:32:17 10° SW 18:50:38 47° S 19:04:45 16° ESE visible
09 Feb 9.5 20:48:35 10° WSW 21:06:58 45° SSW 21:10:38 41° SSE visible
09 Feb 10.3 23:07:33 10° W 23:16:32 24° WSW 23:16:32 24° WSW visible
